This is the latest recevied weather packets stored in our database for station/object DM4XI-13. If no packets are shown the sender has not sent any weather packets the latest 10 day(s).
| Time | Temp. | Humidity | Pressure | Rain* | Wind** | Luminosity | Snow |
|---|---|---|---|---|---|---|---|
| 1777150676 | 12.22° C | 37% | 1014.5 hPa | 0 mm | 0.45 m/s, 270° | 0 W/m² | - |
| 1777150615 | 12.22° C | 37% | 1014.7 hPa | 0 mm | 0.89 m/s, 296° | 0 W/m² | - |
| 1777150554 | 12.22° C | 37% | 1014.6 hPa | 0 mm | 1.34 m/s, 296° | 0 W/m² | - |
| 1777150493 | 12.22° C | 37% | 1014.6 hPa | 0 mm | 0.89 m/s, 301° | 0 W/m² | - |
| 1777150432 | 12.22° C | 37% | 1014.6 hPa | 0 mm | 0.89 m/s, 292° | 0 W/m² | - |
| 1777150371 | 12.22° C | 37% | 1014.6 hPa | 0 mm | 0.45 m/s, 283° | 0 W/m² | - |
| 1777150310 | 12.22° C | 37% | 1014.7 hPa | 0 mm | 0 m/s | 0 W/m² | - |
| 1777150249 | 12.22° C | 37% | 1014.6 hPa | 0 mm | 0.89 m/s, 265° | 0 W/m² | - |
| 1777150188 | 12.22° C | 38% | 1014.8 hPa | 0 mm | 0.89 m/s, 293° | 0 W/m² | - |
| 1777150127 | 12.22° C | 38% | 1014.7 hPa | 0 mm | 0.89 m/s, 273° | 0 W/m² | - |
| 1777150065 | 12.22° C | 38% | 1014.6 hPa | 0 mm | 0 m/s | 0 W/m² | - |
| 1777150005 | 12.22° C | 38% | 1014.8 hPa | 0 mm | 0.45 m/s, 260° | 0 W/m² | - |
| 1777149944 | 12.22° C | 38% | 1014.7 hPa | 0 mm | 0.89 m/s, 287° | 0 W/m² | - |
| 1777149882 | 12.22° C | 38% | 1014.6 hPa | 0 mm | 0.89 m/s, 272° | 0 W/m² | - |
| 1777149822 | 12.22° C | 38% | 1014.6 hPa | 0 mm | 0.45 m/s, 241° | 0 W/m² | - |
| 1777149761 | 12.22° C | 38% | 1014.5 hPa | 0 mm | 0.89 m/s, 273° | 0 W/m² | - |
| 1777149700 | 12.22° C | 38% | 1014.7 hPa | 0 mm | 0.45 m/s, 232° | 0 W/m² | - |
| 1777149639 | 12.22° C | 38% | 1014.4 hPa | 0 mm | 0.45 m/s, 253° | 0 W/m² | - |
| 1777149578 | 12.22° C | 38% | 1014.3 hPa | 0 mm | 0.89 m/s, 228° | 0 W/m² | - |
| 1777149517 | 12.22° C | 38% | 1014.5 hPa | 0 mm | 0.45 m/s, 269° | 0 W/m² | - |
| 1777149456 | 12.22° C | 38% | 1014.5 hPa | 0 mm | 0.89 m/s, 306° | 0 W/m² | - |
| 1777149394 | 12.22° C | 38% | 1014.4 hPa | 0 mm | 0.89 m/s, 238° | 0 W/m² | - |
| 1777149333 | 12.22° C | 38% | 1014.4 hPa | 0 mm | 0.89 m/s, 274° | 0 W/m² | - |
| 1777149273 | 12.22° C | 38% | 1014.4 hPa | 0 mm | 0 m/s | 0 W/m² | - |
| 1777149211 | 12.22° C | 39% | 1014.2 hPa | 0 mm | 0 m/s | 0 W/m² | - |
* Rain latest hour (hover to see other rain measurements)
** Current wind speed in m/s (hover to see current wind gust speed)